Skip Navigation Links
NOAA logo - Click to go to the NOAA homepage
NOAA's National Weather Service
Alaska Aviation Weather Unit
  NWS logo - Click to go to the NWS homepage
Left Navbar Graphic     17 AKDT = 01 GMT

   
NOAA is celebrating 200 years of science, service, and stewardship. Visit the NOAA 200th celebration Web site to learn more.
USA.gov is the U.S. Government's official Web portal to all Federal, state and local government Web resources and services.
Facebook
NWS on Facebook

Important Change Regarding the AAWU Web Presence

 

Over the last several months, the AAWU has been working to navigate its webpages to a nationally supported server. Security, as well as other needs, have necessitated the change.  In the process, we have made an effort to enhance the functionality of our website, as well as some of our products. As of June 27, 2017, aawu.arh.noaa.gov will be discontinued. The new AAWU web address is weather.gov/aawu. It is now live and will run in-parallel with the old site until it is discontinued. Please send any feedback or questions regarding the new webpages to nws.ar.aawu.webauthors@noaa.gov.  Thank you for your patience during this time of transition.
AAWU Home :: Display TAF Add Bookmark
TAF PAKT 252324Z 2600/2624 13012KT P6SM VCSH BKN035 OVC050
      TEMPO 2600/2603 6SM -SHRA BR BKN025 OVC035
     FM260300 VRB04KT P6SM -SHRA BKN025 OVC050
     FM261200 33005KT P6SM VCSH FEW010 OVC050 AMD LTD TO CLD VIS
      AND WIND 2606/2615=

METAR PAKT 251953Z 12011KT 10SM OVC042 14/08 A3002= METAR PAKT 252053Z 12012KT 10SM OVC038 14/09 A3002= METAR PAKT 252153Z 13012KT 10SM FEW030 SCT034 OVC047 13/09 A3002= METAR PAKT 252253Z 12012KT 10SM BKN031 OVC043 13/09 A3002= METAR PAKT 252353Z 11011KT 10SM BKN031 OVC043 14/09 A3002= METAR PAKT 260053Z 13011KT 10SM SCT029 OVC043 13/09 A3001=
 Alaska TAF Map

NOAA's National Weather Service
Alaska Aviation Weather Unit
6930 Sand Lake Road
Anchorage, AK 99502-1845
Disclaimer
Credits
Glossary
Privacy Policy
About Us
Career Opportunities
Contact AAWU Internet Services Site last modified: April, 17th 2012